Flag Weather past 2 weeks in Sion, Valais, Switzerland

Now
46 °F

Sunny.


Feels Like: 45 °F
Forecast: 47 / 64 °F
Wind: 3 mph from Southeast

Location: Sion

Current Time: Oct 31, 2014 at 11:11:47 AM

Latest Report: Oct 31, 2014 at 10:00 AM


Visibility: 19 mi

Pressure: 30.37 "Hg

Humidity: 80%

Dew point: 40 °F

Location of SionLocation

Historic Weather in Sion — Graph

°F

Sion temperature yesterday

Maximum temperature yesterday: 62 °F (at 3:00 PM)
Minimum temperature yesterday: 38 °F (at 2:00 AM)
Average temperature yesterday: 47 °F

Past Weeks' High & Low Weather Summary

 TemperatureHumidityPressure
High72 °F (Oct 20, 4:00 PM)98% (Oct 17, 9:00 AM)30.41 "Hg (Oct 17, 9:00 AM)
Low35 °F (Oct 24, 7:00 AM)40% (Oct 20, 2:00 PM)29.84 "Hg (Oct 21, 6:00 PM)
Average51 °F77%30.19 "Hg
* Reported Oct 16 10:00 AM — Oct 31 9:00 AM, Sion, Weather by CustomWeather, © 2014

Note: Actual official high and low records may vary slightly from our data, if they occured in-between our weather recording intervals... More about our weather records

Advertising

Sion weather history for previous 24 hours

 ConditionsComfort  
Time TempWeatherWind HumidityBarometerVisibility
9:00 AM
Oct 31
40 °FChilly.1 mph88%30.41 "HgN/A
8:00 AM39 °FChilly.No wind90%30.41 "HgN/A
7:00 AM38 °FSunny.1 mph90%30.39 "Hg12 mi
6:00 AM41 °FQuite cool.5 mph86%30.38 "HgN/A
5:00 AM39 °FChilly.5 mph89%30.39 "HgN/A
4:00 AM40 °FClear.2 mph87%30.39 "Hg9 mi
3:00 AM42 °FQuite cool.2 mph83%30.38 "HgN/A
2:00 AM42 °FQuite cool.3 mph84%30.39 "HgN/A
1:00 AM42 °FClear.1 mph83%30.39 "Hg9 mi
12:00 AM42 °FQuite cool.1 mph84%30.38 "HgN/A
11:00 PM
Oct 30
44 °FQuite cool.2 mph81%30.37 "HgN/A
10:00 PM45 °FClear.5 mph81%30.36 "Hg16 mi
9:00 PM45 °FQuite cool.1 mph82%30.35 "HgN/A
8:00 PM48 °FCool.2 mph74%30.32 "HgN/A
7:00 PM48 °FClear.2 mph76%30.31 "Hg16 mi
6:00 PM50 °FCool.1 mph71%30.28 "HgN/A
5:00 PM57 °FRefreshingly cool.No wind57%30.23 "HgN/A
4:00 PM61 °FSunny.2 mph46%30.19 "Hg19 mi
3:00 PM62 °FRefreshingly cool.5 mph41%30.19 "HgN/A
2:00 PM61 °FRefreshingly cool.5 mph40%30.20 "HgN/A
1:00 PM58 °FPassing clouds.3 mph42%30.23 "Hg16 mi
12:00 PM57 °FRefreshingly cool.2 mph47%30.25 "HgN/A
11:00 AM52 °FCool.3 mph58%30.28 "HgN/A
Weather by CustomWeather, © 2014

See weather overviewHow to use our weather pages